When you browse on this site, cookies collect data to enhance your experience and personalize the content and advertising you see.
Visit our Privacy Policy to learn more. By continuing to use the site, you agree to this use of cookies and data.
  • In Austria
  • List of Countries
  • For 7 days
  • Water Temperature
  • Weather Map
  • News
  • Weather Widgets
  • user-avatar
    Login

    Hourly Weather Veliko Tarnovo

    Today, 18 October, Friday

    Time Temperature Precipitation Wind Pressure Humidity
    00:00 +16°C° 0 mm 1 mps 741 mmHg 59%
    01:00 +14°C° 0 mm 0 mps 741 mmHg 61%
    02:00 +15°C° 0 mm 1 mps 741 mmHg 59%
    03:00 +15°C° 0 mm 1 mps 741 mmHg 60%
    04:00 +13°C° 0 mm 0 mps 741 mmHg 61%
    05:00 +13°C° 0 mm 0 mps 740 mmHg 62%
    06:00 +14°C° 0 mm 0 mps 741 mmHg 60%
    07:00 +15°C° 0 mm 0 mps 741 mmHg 57%
    08:00 +16°C° 0 mm 0 mps 741 mmHg 55%
    09:00 +19°C° 0 mm 0 mps 741 mmHg 48%
    10:00 +23°C° 0 mm 1 mps 741 mmHg 41%
    11:00 +25°C° 0 mm 1 mps 741 mmHg 35%
    12:00 +26°C° 0 mm 1 mps 741 mmHg 33%
    13:00 +27°C° 0 mm 1 mps 741 mmHg 31%
    14:00 +27°C° 0 mm 2 mps 740 mmHg 29%
    15:00 +26°C° 0 mm 2 mps 740 mmHg 33%
    16:00 +25°C° 0 mm 1 mps 740 mmHg 36%
    17:00 +23°C° 0 mm 1 mps 739 mmHg 40%
    18:00 +22°C° 0 mm 1 mps 739 mmHg 44%
    19:00 +21°C° 0 mm 1 mps 739 mmHg 48%
    20:00 +19°C° 0 mm 1 mps 740 mmHg 52%
    21:00 +19°C° 0 mm 1 mps 740 mmHg 54%
    22:00 +18°C° 0 mm 1 mps 740 mmHg 56%
    23:00 +18°C° 0 mm 1 mps 740 mmHg 58%

    Tomorrow, 19 October, Saturday

    Time Temperature Precipitation Wind Pressure Humidity
    00:00 +18°C° 0 mm 1 mps 740 mmHg 60%
    01:00 +16°C° 0 mm 1 mps 740 mmHg 61%
    02:00 +16°C° 0 mm 1 mps 740 mmHg 62%
    03:00 +16°C° 0 mm 1 mps 740 mmHg 63%
    04:00 +16°C° 0 mm 1 mps 740 mmHg 63%
    05:00 +15°C° 0 mm 1 mps 740 mmHg 64%
    06:00 +15°C° 0 mm 0 mps 740 mmHg 61%
    07:00 +16°C° 0 mm 0 mps 740 mmHg 59%
    08:00 +17°C° 0 mm 0 mps 741 mmHg 56%
    09:00 +19°C° 0 mm 0 mps 741 mmHg 50%
    10:00 +22°C° 0 mm 0 mps 741 mmHg 43%
    11:00 +26°C° 0 mm 1 mps 741 mmHg 37%
    12:00 +27°C° 0 mm 1 mps 741 mmHg 35%
    13:00 +27°C° 0 mm 1 mps 741 mmHg 33%
    14:00 +28°C° 0 mm 1 mps 740 mmHg 31%
    15:00 +27°C° 0 mm 1 mps 740 mmHg 35%
    16:00 +26°C° 0 mm 1 mps 740 mmHg 38%
    17:00 +24°C° 0 mm 1 mps 740 mmHg 42%
    18:00 +23°C° 0 mm 1 mps 740 mmHg 46%
    19:00 +21°C° 0 mm 1 mps 740 mmHg 50%
    20:00 +20°C° 0 mm 1 mps 740 mmHg 54%
    21:00 +19°C° 0 mm 1 mps 741 mmHg 56%
    22:00 +19°C° 0 mm 1 mps 741 mmHg 57%
    23:00 +19°C° 0 mm 1 mps 741 mmHg 59%

    Day after tomorrow, 20 October, Sunday

    Time Temperature Precipitation Wind Pressure Humidity
    00:00 +18°C° 0 mm 1 mps 741 mmHg 60%
    01:00 +18°C° 0 mm 1 mps 741 mmHg 61%
    02:00 +18°C° 0 mm 1 mps 741 mmHg 62%
    03:00 +16°C° 0 mm 1 mps 741 mmHg 63%
    04:00 +16°C° 0 mm 1 mps 741 mmHg 64%
    05:00 +16°C° 0 mm 1 mps 741 mmHg 64%
    06:00 +18°C° 0 mm 1 mps 742 mmHg 62%
    07:00 +17°C° 0 mm 0 mps 742 mmHg 59%
    08:00 +18°C° 0 mm 0 mps 742 mmHg 57%
    09:00 +20°C° 0 mm 0 mps 742 mmHg 51%
    10:00 +24°C° 0 mm 1 mps 742 mmHg 45%
    11:00 +26°C° 0 mm 1 mps 743 mmHg 38%
    12:00 +27°C° 0 mm 1 mps 742 mmHg 37%
    13:00 +28°C° 0 mm 1 mps 742 mmHg 35%
    14:00 +28°C° 0 mm 2 mps 742 mmHg 33%
    15:00 +27°C° 0 mm 1 mps 742 mmHg 37%
    16:00 +26°C° 0 mm 1 mps 742 mmHg 40%
    17:00 +25°C° 0 mm 1 mps 741 mmHg 43%
    18:00 +23°C° 0 mm 1 mps 742 mmHg 48%
    19:00 +22°C° 0 mm 1 mps 742 mmHg 52%
    20:00 +20°C° 0 mm 1 mps 742 mmHg 57%
    21:00 +20°C° 0 mm 1 mps 742 mmHg 59%
    22:00 +19°C° 0 mm 1 mps 742 mmHg 61%
    23:00 +19°C° 0 mm 1 mps 743 mmHg 63%

    21 October, Monday

    Time Temperature Precipitation Wind Pressure Humidity
    00:00 +18°C° 0 mm 1 mps 743 mmHg 65%
    01:00 +18°C° 0 mm 1 mps 742 mmHg 66%
    02:00 +18°C° 0 mm 1 mps 742 mmHg 67%
    03:00 +18°C° 0 mm 1 mps 742 mmHg 68%
    04:00 +16°C° 0 mm 1 mps 742 mmHg 68%
    05:00 +16°C° 0 mm 1 mps 742 mmHg 69%
    06:00 +16°C° 0 mm 0 mps 743 mmHg 66%
    07:00 +17°C° 0 mm 0 mps 743 mmHg 63%
    08:00 +18°C° 0 mm 0 mps 743 mmHg 60%
    09:00 +20°C° 0 mm 0 mps 743 mmHg 53%
    10:00 +22°C° 0 mm 0 mps 743 mmHg 46%
    11:00 +26°C° 0 mm 1 mps 744 mmHg 38%
    12:00 +27°C° 0 mm 1 mps 743 mmHg 36%
    13:00 +28°C° 0 mm 1 mps 743 mmHg 33%
    14:00 +28°C° 0 mm 1 mps 743 mmHg 31%
    15:00 +27°C° 0 mm 1 mps 743 mmHg 34%
    16:00 +26°C° 0 mm 1 mps 742 mmHg 38%
    17:00 +24°C° 0 mm 1 mps 742 mmHg 41%
    18:00 +23°C° 0 mm 1 mps 742 mmHg 44%
    19:00 +21°C° 0 mm 1 mps 742 mmHg 48%
    20:00 +20°C° 0 mm 1 mps 743 mmHg 51%
    21:00 +19°C° 0 mm 1 mps 743 mmHg 52%
    22:00 +19°C° 0 mm 1 mps 743 mmHg 54%
    23:00 +18°C° 0 mm 1 mps 743 mmHg 55%

    22 October, Tuesday

    Time Temperature Precipitation Wind Pressure Humidity
    00:00 +18°C° 0 mm 1 mps 743 mmHg 56%
    01:00 +18°C° 0 mm 1 mps 743 mmHg 57%
    02:00 +18°C° 0 mm 1 mps 743 mmHg 57%
    03:00 +16°C° 0 mm 1 mps 743 mmHg 58%
    04:00 +16°C° 0 mm 1 mps 743 mmHg 59%
    05:00 +15°C° 0 mm 0 mps 743 mmHg 59%
    06:00 +16°C° 0 mm 0 mps 743 mmHg 58%
    07:00 +16°C° 0 mm 0 mps 743 mmHg 56%
    08:00 +17°C° 0 mm 0 mps 743 mmHg 55%
    09:00 +21°C° 0 mm 1 mps 743 mmHg 49%
    10:00 +23°C° 0 mm 1 mps 743 mmHg 43%
    11:00 +26°C° 0 mm 1 mps 743 mmHg 38%
    12:00 +26°C° 0 mm 1 mps 743 mmHg 36%
    13:00 +27°C° 0 mm 1 mps 743 mmHg 34%
    14:00 +27°C° 0 mm 2 mps 742 mmHg 33%
    15:00 +26°C° 0 mm 1 mps 742 mmHg 36%
    16:00 +25°C° 0 mm 1 mps 742 mmHg 40%
    17:00 +24°C° 0 mm 1 mps 742 mmHg 44%
    18:00 +22°C° 0 mm 1 mps 742 mmHg 46%
    19:00 +21°C° 0 mm 1 mps 742 mmHg 49%
    20:00 +20°C° 0 mm 1 mps 742 mmHg 52%
    21:00 +19°C° 0 mm 1 mps 743 mmHg 54%
    22:00 +19°C° 0 mm 1 mps 743 mmHg 56%
    23:00 +19°C° 0 mm 1 mps 743 mmHg 57%

    23 October, Wednesday

    Time Temperature Precipitation Wind Pressure Humidity
    00:00 +18°C° 0 mm 1 mps 743 mmHg 59%
    01:00 +16°C° 0 mm 0 mps 743 mmHg 61%
    02:00 +15°C° 0 mm 0 mps 743 mmHg 62%
    03:00 +15°C° 0 mm 0 mps 743 mmHg 64%
    04:00 +15°C° 0 mm 0 mps 743 mmHg 66%
    05:00 +15°C° 0 mm 1 mps 743 mmHg 68%
    06:00 +16°C° 0 mm 1 mps 744 mmHg 66%
    07:00 +16°C° 0 mm 1 mps 744 mmHg 64%
    08:00 +18°C° 0 mm 1 mps 744 mmHg 61%
    09:00 +20°C° 0 mm 1 mps 744 mmHg 55%
    10:00 +22°C° 0 mm 1 mps 744 mmHg 49%
    11:00 +24°C° 0 mm 2 mps 744 mmHg 42%
    12:00 +25°C° 0 mm 2 mps 744 mmHg 41%
    13:00 +25°C° 0 mm 2 mps 744 mmHg 40%
    14:00 +26°C° 0 mm 2 mps 743 mmHg 38%
    15:00 +25°C° 0 mm 2 mps 743 mmHg 43%
    16:00 +24°C° 0 mm 2 mps 743 mmHg 47%
    17:00 +21°C° 0 mm 2 mps 743 mmHg 52%
    18:00 +20°C° 0 mm 2 mps 743 mmHg 57%
    19:00 +19°C° 0 mm 2 mps 743 mmHg 62%
    20:00 +18°C° 0 mm 1 mps 743 mmHg 68%
    21:00 +18°C° 0 mm 1 mps 743 mmHg 71%
    22:00 +16°C° 0 mm 1 mps 744 mmHg 74%
    23:00 +16°C° 0 mm 1 mps 744 mmHg 77%
    Show more